When you browse on this site, cookies collect data to enhance your experience and personalize the content and advertising you see.
Visit our Privacy Policy to learn more. By continuing to use the site, you agree to this use of cookies and data.
  • In United Kingdom
  • List of Countries
  • For 7 days
  • Water Temperature
  • Weather Map
  • Weather Widgets
  • user-avatar
    Login

    Hourly Weather Northallerton

    Today, 26 February, Wednesday

    Time Temperature Precipitation Wind Pressure Humidity
    00:00 +1°C° 0 mm 3 mps 740 mmHg 91%
    01:00 0°C° 0 mm 4 mps 741 mmHg 90%
    02:00 0°C° 0 mm 4 mps 741 mmHg 89%
    03:00 0°C° 0 mm 4 mps 741 mmHg 88%
    04:00 0°C° 0 mm 4 mps 741 mmHg 87%
    05:00 0°C° 0 mm 4 mps 742 mmHg 86%
    06:00 0°C° 0 mm 4 mps 742 mmHg 86%
    07:00 0°C° 0 mm 5 mps 743 mmHg 83%
    08:00 +1°C° 0 mm 5 mps 744 mmHg 81%
    09:00 +2°C° 0 mm 5 mps 744 mmHg 78%
    10:00 +2°C° 0 mm 6 mps 745 mmHg 75%
    11:00 +3°C° 0 mm 7 mps 746 mmHg 72%
    12:00 +4°C° 0 mm 8 mps 746 mmHg 69%
    13:00 +4°C° 0 mm 8 mps 747 mmHg 66%
    14:00 +2°C° 0 mm 8 mps 747 mmHg 63%
    15:00 +2°C° 0 mm 8 mps 748 mmHg 60%
    16:00 +2°C° 0 mm 7 mps 748 mmHg 65%
    17:00 +1°C° 0 mm 6 mps 748 mmHg 69%
    18:00 0°C° 0 mm 5 mps 748 mmHg 73%
    19:00 0°C° 0 mm 4 mps 748 mmHg 77%
    20:00 -1°C° 0 mm 4 mps 748 mmHg 81%
    21:00 -1°C° 0 mm 4 mps 748 mmHg 85%
    22:00 -1°C° 0 mm 4 mps 747 mmHg 88%
    23:00 0°C° 0 mm 4 mps 747 mmHg 90%

    Tomorrow, 27 February, Thursday

    Time Temperature Precipitation Wind Pressure Humidity
    00:00 0°C° 0 mm 4 mps 746 mmHg 93%
    01:00 0°C° 0.3 mm 4 mps 745 mmHg 94%
    02:00 +1°C° 0.3 mm 3 mps 744 mmHg 95%
    03:00 +1°C° 0.3 mm 3 mps 744 mmHg 96%
    04:00 +1°C° 0.5 mm 3 mps 743 mmHg 97%
    05:00 +2°C° 0.5 mm 2 mps 742 mmHg 97%
    06:00 +1°C° 0.5 mm 2 mps 742 mmHg 97%
    07:00 +1°C° 0.8 mm 2 mps 742 mmHg 98%
    08:00 +2°C° 0.8 mm 1 mps 741 mmHg 98%
    09:00 +2°C° 0.8 mm 1 mps 741 mmHg 98%
    10:00 +2°C° 0.2 mm 2 mps 742 mmHg 93%
    11:00 +1°C° 0.2 mm 4 mps 742 mmHg 88%
    12:00 +1°C° 0.2 mm 6 mps 743 mmHg 83%
    13:00 +2°C° 0 mm 6 mps 743 mmHg 79%
    14:00 +2°C° 0 mm 6 mps 743 mmHg 76%
    15:00 +2°C° 0 mm 7 mps 744 mmHg 73%
    16:00 +2°C° 0 mm 7 mps 744 mmHg 75%
    17:00 +1°C° 0 mm 6 mps 745 mmHg 77%
    18:00 -1°C° 0 mm 6 mps 746 mmHg 79%
    19:00 -1°C° 0 mm 6 mps 747 mmHg 80%
    20:00 -1°C° 0 mm 6 mps 748 mmHg 81%
    21:00 -1°C° 0 mm 6 mps 749 mmHg 81%
    22:00 -1°C° 0 mm 6 mps 749 mmHg 82%
    23:00 -1°C° 0 mm 5 mps 750 mmHg 82%

    Day after tomorrow, 28 February, Friday

    Time Temperature Precipitation Wind Pressure Humidity
    00:00 -1°C° 0 mm 5 mps 750 mmHg 82%
    01:00 -1°C° 0 mm 5 mps 750 mmHg 83%
    02:00 -1°C° 0 mm 4 mps 750 mmHg 84%
    03:00 -1°C° 0 mm 4 mps 751 mmHg 85%
    04:00 0°C° 0 mm 4 mps 751 mmHg 86%
    05:00 +1°C° 0 mm 3 mps 751 mmHg 87%
    06:00 +1°C° 0 mm 3 mps 751 mmHg 89%
    07:00 +1°C° 0 mm 3 mps 750 mmHg 87%
    08:00 +2°C° 0 mm 3 mps 750 mmHg 85%
    09:00 +2°C° 0 mm 3 mps 750 mmHg 84%
    10:00 +3°C° 0 mm 4 mps 750 mmHg 83%
    11:00 +3°C° 0 mm 4 mps 750 mmHg 82%
    12:00 +4°C° 0 mm 4 mps 750 mmHg 80%
    13:00 +4°C° 0 mm 4 mps 749 mmHg 81%
    14:00 +4°C° 0 mm 4 mps 748 mmHg 82%
    15:00 +4°C° 0 mm 4 mps 747 mmHg 83%
    16:00 +3°C° 0 mm 4 mps 747 mmHg 86%
    17:00 +3°C° 0 mm 4 mps 746 mmHg 90%
    18:00 +1°C° 0 mm 4 mps 745 mmHg 93%
    19:00 +1°C° 0.2 mm 5 mps 744 mmHg 94%
    20:00 +1°C° 0.2 mm 5 mps 743 mmHg 95%
    21:00 +1°C° 0.2 mm 6 mps 742 mmHg 96%
    22:00 +1°C° 1.4 mm 6 mps 741 mmHg 96%
    23:00 +2°C° 1.4 mm 6 mps 739 mmHg 96%

    29 February, Saturday

    Time Temperature Precipitation Wind Pressure Humidity
    00:00 +2°C° 1.4 mm 6 mps 738 mmHg 96%
    01:00 +3°C° 2.4 mm 6 mps 736 mmHg 97%
    02:00 +4°C° 2.4 mm 6 mps 734 mmHg 97%
    03:00 +4°C° 2.4 mm 6 mps 733 mmHg 97%
    04:00 +5°C° 1.1 mm 6 mps 731 mmHg 96%
    05:00 +6°C° 1.1 mm 7 mps 729 mmHg 94%
    06:00 +8°C° 1.1 mm 7 mps 728 mmHg 93%
    07:00 +6°C° 0.9 mm 8 mps 727 mmHg 92%
    08:00 +6°C° 0.9 mm 8 mps 727 mmHg 92%
    09:00 +6°C° 0.9 mm 9 mps 726 mmHg 91%
    10:00 +5°C° 0.3 mm 9 mps 726 mmHg 84%
    11:00 +3°C° 0.3 mm 9 mps 727 mmHg 76%
    12:00 +2°C° 0.3 mm 9 mps 727 mmHg 69%
    13:00 +2°C° 0 mm 9 mps 728 mmHg 67%
    14:00 +2°C° 0 mm 9 mps 728 mmHg 65%
    15:00 +2°C° 0 mm 9 mps 728 mmHg 62%
    16:00 +2°C° 0.1 mm 9 mps 727 mmHg 69%
    17:00 +1°C° 0.1 mm 9 mps 726 mmHg 75%
    18:00 0°C° 0.1 mm 9 mps 725 mmHg 81%
    19:00 0°C° 1.1 mm 10 mps 725 mmHg 84%
    20:00 -1°C° 1.1 mm 11 mps 724 mmHg 88%
    21:00 -1°C° 1.1 mm 13 mps 724 mmHg 91%
    22:00 -1°C° 0.5 mm 12 mps 724 mmHg 90%
    23:00 -1°C° 0.5 mm 12 mps 724 mmHg 90%

    1 March, Sunday

    Time Temperature Precipitation Wind Pressure Humidity
    00:00 -1°C° 0.5 mm 12 mps 724 mmHg 89%
    01:00 -1°C° 0.4 mm 11 mps 725 mmHg 90%
    02:00 -2°C° 0.4 mm 11 mps 725 mmHg 91%
    03:00 -2°C° 0.4 mm 11 mps 725 mmHg 93%
    04:00 -2°C° 0.2 mm 10 mps 725 mmHg 88%
    05:00 -1°C° 0.2 mm 9 mps 725 mmHg 84%
    06:00 -1°C° 0.2 mm 8 mps 725 mmHg 80%
    07:00 -1°C° 0.3 mm 9 mps 725 mmHg 83%
    08:00 -2°C° 0.3 mm 10 mps 725 mmHg 85%
    09:00 -1°C° 0.3 mm 11 mps 725 mmHg 88%
    10:00 -1°C° 0.3 mm 11 mps 725 mmHg 83%
    11:00 +1°C° 0.3 mm 11 mps 725 mmHg 78%
    12:00 +2°C° 0.3 mm 11 mps 725 mmHg 73%
    13:00 +2°C° 0.1 mm 10 mps 725 mmHg 73%
    14:00 +2°C° 0.1 mm 10 mps 725 mmHg 74%
    15:00 +2°C° 0.1 mm 9 mps 725 mmHg 74%
    16:00 +1°C° 0.2 mm 8 mps 724 mmHg 77%
    17:00 +1°C° 0.2 mm 8 mps 724 mmHg 79%
    18:00 0°C° 0.2 mm 7 mps 724 mmHg 81%
    19:00 +2°C° 0.4 mm 7 mps 724 mmHg 84%
    20:00 +2°C° 0.4 mm 7 mps 723 mmHg 87%
    21:00 +1°C° 0.4 mm 8 mps 723 mmHg 89%
    22:00 +2°C° 0.2 mm 7 mps 723 mmHg 90%
    23:00 +1°C° 0.2 mm 6 mps 723 mmHg 92%

    2 March, Monday

    Time Temperature Precipitation Wind Pressure Humidity
    00:00 +1°C° 0.2 mm 5 mps 723 mmHg 93%
    01:00 +1°C° 0.2 mm 4 mps 723 mmHg 93%
    02:00 +1°C° 0.2 mm 4 mps 723 mmHg 93%
    03:00 +1°C° 0.2 mm 4 mps 723 mmHg 93%
    04:00 +1°C° 0.1 mm 5 mps 723 mmHg 94%
    05:00 +1°C° 0.1 mm 5 mps 723 mmHg 94%
    06:00 +1°C° 0.1 mm 5 mps 724 mmHg 94%
    07:00 +1°C° 0 mm 6 mps 724 mmHg 92%
    08:00 +1°C° 0 mm 6 mps 725 mmHg 90%
    09:00 +1°C° 0 mm 6 mps 726 mmHg 88%
    10:00 +2°C° 0.1 mm 7 mps 726 mmHg 86%
    11:00 +2°C° 0.1 mm 7 mps 727 mmHg 84%
    12:00 +2°C° 0.1 mm 8 mps 728 mmHg 83%
    13:00 +3°C° 0 mm 7 mps 729 mmHg 81%
    14:00 +3°C° 0 mm 7 mps 729 mmHg 80%
    15:00 +4°C° 0 mm 7 mps 730 mmHg 79%
    16:00 +3°C° 0 mm 6 mps 731 mmHg 81%
    17:00 +2°C° 0 mm 5 mps 731 mmHg 84%
    18:00 +1°C° 0 mm 5 mps 732 mmHg 86%
    19:00 +1°C° 0 mm 4 mps 733 mmHg 86%
    20:00 0°C° 0 mm 4 mps 734 mmHg 87%
    21:00 0°C° 0 mm 4 mps 734 mmHg 87%
    22:00 0°C° 0 mm 5 mps 735 mmHg 86%
    23:00 -1°C° 0 mm 5 mps 736 mmHg 85%
    Show more